Location: Auckland
(36.8670°S, 174.7670°E)
Time: 18:24:42
(UTC+12:00)

Tiros 1 despin weight - All Passes

Search period start: 19 July 2019 00:00
Search period end: 29 July 2019 00:00
Orbit: 594 x 642 km, 48.2° (Epoch: 17 July)

Date Brightness Start Highest point End Pass type
(mag) Time Alt. Az. Time Alt. Az. Time Alt. Az.
19 Jul - 01:25:38 10° WNW 01:30:01 59° SSW 01:34:29 10° SE night (unlit)
19 Jul - 03:08:44 10° WSW 03:12:16 22° SSW 03:15:51 10° SE night (unlit)
19 Jul - 04:51:34 10° SW 04:55:01 21° S 04:58:30 10° ESE visible
19 Jul - 06:32:57 10° SW 06:37:23 48° SSE 06:41:52 10° ENE visible
19 Jul - 08:14:44 10° WSW 08:18:52 33° NW 08:23:01 10° NNE daylight
20 Jul - 00:00:53 10° NW 00:05:10 49° NE 00:09:30 10° ESE night (unlit)
20 Jul - 01:42:42 10° W 01:46:50 36° SSW 01:51:00 10° SE night (unlit)
20 Jul - 03:26:04 10° SW 03:29:22 19° S 03:32:40 10° SE visible
20 Jul - 05:08:14 10° SW 05:12:04 26° SSE 05:15:55 10° ESE visible
20 Jul - 06:49:30 10° SW 06:54:07 85° SE 06:58:44 10° NE visible
20 Jul - 08:32:20 10° W 08:35:12 16° NW 08:38:06 10° N daylight
20 Jul - 22:38:00 10° NNE 22:40:40 16° NE 22:43:21 10° E night (unlit)
21 Jul - 00:17:16 10° WNW 00:21:44 84° SSW 00:26:14 10° SE night (unlit)
21 Jul - 02:00:02 10° WSW 02:03:46 25° SSW 02:07:33 10° SE night (unlit)
21 Jul - 03:43:11 10° SW 03:46:28 19° S 03:49:47 10° SE visible
21 Jul - 05:24:46 10° SW 05:29:00 37° SSE 05:33:15 10° E visible
21 Jul - 07:06:16 10° WSW 07:10:40 50° NW 07:15:08 10° NE daylight
21 Jul - 22:53:02 10° NNW 22:57:00 33° NE 23:01:00 10° ESE night (unlit)
22 Jul - 00:34:09 10° WNW 00:38:27 47° SSW 00:42:47 10° SE night (unlit)
22 Jul - 02:17:26 10° WSW 02:20:49 20° S 02:24:14 10° SE night (unlit)
22 Jul - 03:59:58 10° SW 04:03:33 22° SSE 04:07:09 10° ESE visible
22 Jul - 05:41:17 10° SW 05:45:47 60° SSE 05:50:19 10° ENE visible
22 Jul - 07:23:23 10° W 07:27:06 25° NW 07:30:50 10° N daylight
22 Jul - 23:09:04 10° NW 23:13:28 67° NE 23:17:55 10° ESE night (unlit)
23 Jul - 00:51:21 10° W 00:55:18 30° SSW 00:59:18 10° SE night (unlit)
23 Jul - 02:34:41 10° SW 02:37:55 19° S 02:41:10 10° SE night (unlit)
23 Jul - 04:16:35 10° SW 04:20:33 29° SSE 04:24:34 10° E visible
23 Jul - 05:57:54 10° WSW 06:02:26 74° NW 06:07:01 10° NE visible
23 Jul - 07:41:51 10° WNW 07:43:24 12° NW 07:44:57 10° NNW daylight
23 Jul - 21:45:29 10° N 21:48:53 22° NE 21:52:18 10° E night (unlit)
23 Jul - 23:25:41 10° WNW 23:30:07 64° SSW 23:34:34 10° SE night (unlit)
24 Jul - 01:08:44 10° WSW 01:12:18 23° SSW 01:15:53 10° SE night (unlit)
24 Jul - 02:51:40 10° SW 02:55:02 20° S 02:58:25 10° SE night (unlit)
24 Jul - 04:33:05 10° SW 04:37:26 44° SSE 04:41:48 10° E visible
24 Jul - 06:14:46 10° WSW 06:18:56 36° NW 06:23:09 10° NNE visible
24 Jul - 22:01:03 10° NNW 22:05:17 44° NE 22:09:32 10° ESE night (unlit)
24 Jul - 23:42:43 10° W 23:46:53 38° SSW 23:51:05 10° SE night (unlit)
25 Jul - 01:26:06 10° SW 01:29:22 19° S 01:32:40 10° SE night (unlit)
25 Jul - 03:08:22 10° SW 03:12:05 25° SSE 03:15:49 10° ESE night (unlit)
25 Jul - 04:49:38 10° SW 04:54:10 78° SE 04:58:44 10° ENE visible
25 Jul - 06:32:14 10° W 06:35:19 18° NW 06:38:24 10° N visible
25 Jul - 20:38:27 10° NNE 20:40:47 14° NE 20:43:08 10° E night (unlit)
25 Jul - 22:17:21 10° NW 22:21:49 89° NE 22:26:19 10° SE night (unlit)
26 Jul - 00:00:01 10° WSW 00:03:48 26° SSW 00:07:37 10° SE night (unlit)
26 Jul - 01:43:15 10° SW 01:46:29 19° S 01:49:44 10° SE night (unlit)
26 Jul - 03:24:54 10° SW 03:29:02 34° SSE 03:33:10 10° E visible
26 Jul - 05:06:19 10° WSW 05:10:45 55° NW 05:15:12 10° NE visible
26 Jul - 20:53:15 10° NNW 20:57:07 29° NE 21:01:00 10° ESE night (unlit)
26 Jul - 22:34:10 10° WNW 22:38:31 50° SSW 22:42:53 10° SE night (unlit)
27 Jul - 00:17:25 10° WSW 00:20:50 21° S 00:24:15 10° SE night (unlit)
27 Jul - 02:00:05 10° SW 02:03:34 21° S 02:07:04 10° ESE night (unlit)
27 Jul - 03:41:24 10° SW 03:45:51 55° SSE 03:50:17 10° ENE visible
27 Jul - 05:23:23 10° WSW 05:27:12 27° NW 05:31:01 10° NNE visible
27 Jul - 21:09:11 10° NW 21:13:35 61° NE 21:18:00 10° ESE night (unlit)
27 Jul - 22:51:20 10° W 22:55:21 32° SSW 22:59:23 10° SE night (unlit)
28 Jul - 00:34:43 10° SW 00:37:56 19° S 00:41:09 10° SE night (unlit)
28 Jul - 02:16:43 10° SW 02:20:35 28° SSE 02:24:28 10° ESE night (unlit)
28 Jul - 03:58:00 10° WSW 04:02:31 81° NW 04:07:03 10° NE visible
28 Jul - 05:41:29 10° WNW 05:43:31 13° NW 05:45:33 10° NNW visible
28 Jul - 19:45:47 10° N 19:49:00 20° NE 19:52:14 10° E visible
28 Jul - 21:25:44 10° WNW 21:30:11 71° SSW 21:34:40 10° SE night (unlit)
28 Jul - 23:08:42 10° WSW 23:12:19 23° SSW 23:15:56 10° SE night (unlit)
